Weather History for KD07 - March, 2013

Change the Weather History Date:

Monday, March 4, 2013

  Actual Average Record
Temperature  
Mean Temperature 23 °F 28 °F  
Max Temperature 33 °F 38 °F 55 °F (2005)
Min Temperature 13 °F 19 °F -3 °F (2015)
Degree Days  
Heating Degree Days 42 37  
Month to date heating degree days 123 149  
Since 1 July heating degree days 5466 5837  
Cooling Degree Days 0 0  
Month to date cooling degree days 0 0  
Year to date cooling degree days 0 0  
Moisture  
Dew Point 18 °F    
Average Humidity 87    
Maximum Humidity 100    
Minimum Humidity 73    
Precipitation  
Precipitation 0.02 in 0.02 in 0.06 in (2012)
Month to date precipitation 0.08 0.06  
Year to date precipitation 0.65 0.68  
Sea Level Pressure  
Sea Level Pressure 29.94 in    
Wind  
Wind Speed 30 mph (WNW)    
Max Wind Speed 46 mph    
Max Gust Speed 55 mph    
T = Trace of Precipitation, MM = Missing Value Source: NWS Daily Summary

Daily Weather History Graph

Daily Weather History Graph

Search for Another Location

Airport or City:

Trip Planner

Search our weather history database for the weather conditions in past years. The results will help you decide how hot, cold, wet, or windy it might be!

Date:

Astronomy

Mar. 04, 2013 Rise Set
Actual Time 6:20 AM MST 5:39 PM MST
Civil Twilight 5:50 AM MST 6:09 PM MST
Nautical Twilight 5:16 AM MST 6:43 PM MST
Astronomical Twilight 4:42 AM MST 7:17 PM MST
Moon 12:43 AM MST (3/4) 10:12 AM MST (3/4)
Length of Visible Light 12h 18m
Length of Day
11h 19m
Waning Gibbous, 51% of the Moon is Illuminated
Mar 4
Waning Gibbous
Mar 4
Last Quarter
Mar 11
New
Mar 19
First Quarter
Mar 27
Full

Hourly Weather History & Observations

Time (MST) Temp. Windchill Dew Point Humidity Pressure Visibility Wind Dir Wind Speed Gust Speed Precip Events Conditions
12:56 AM 33.1 °F 20.9 °F 32.0 °F 96% 29.70 in - WNW 21.9 mph - 0.02 in   Unknown
1:56 AM 33.1 °F 21.9 °F 30.9 °F 92% 29.72 in - WNW 18.4 mph - N/A   Unknown
2:56 AM 32.0 °F 20.5 °F 30.0 °F 92% 29.73 in - WNW 18.4 mph - N/A   Unknown
3:56 AM 30.9 °F 18.4 °F 26.1 °F 82% 29.74 in - WNW 20.7 mph 27.6 mph N/A   Unknown
4:56 AM 27.0 °F 13.2 °F 21.0 °F 78% 29.73 in - WNW 20.7 mph - N/A   Unknown
5:56 AM 24.1 °F 11.5 °F 19.0 °F 81% 29.79 in - West 15.0 mph 20.7 mph N/A   Unknown
6:56 AM 26.1 °F 9.8 °F 19.0 °F 75% 29.82 in - West 28.8 mph 39.1 mph N/A   Unknown
7:56 AM 26.1 °F 10.1 °F 19.9 °F 78% 29.83 in - West 27.6 mph 36.8 mph N/A   Unknown
8:56 AM 27.0 °F 11.9 °F 19.9 °F 75% 29.84 in - West 25.3 mph 38.0 mph N/A   Unknown
9:56 AM 27.0 °F 11.6 °F 19.9 °F 75% 29.86 in - West 26.5 mph 38.0 mph N/A   Unknown
10:56 AM 26.1 °F 9.1 °F 19.0 °F 75% 29.86 in - West 32.2 mph 39.1 mph N/A   Unknown
11:56 AM 25.0 °F 7.8 °F 17.1 °F 72% 29.86 in - WNW 31.1 mph 41.4 mph N/A   Unknown
12:56 PM 25.0 °F 6.9 °F 17.1 °F 72% 29.86 in - West 35.7 mph 44.9 mph N/A   Unknown
1:56 PM 23.0 °F 3.9 °F 19.9 °F 88% 29.88 in - WNW 36.8 mph 43.7 mph N/A   Unknown
2:56 PM 21.9 °F 2.9 °F 18.0 °F 85% 29.92 in - NW 34.5 mph 46.0 mph N/A   Unknown
3:56 PM 21.0 °F 0.9 °F 16.0 °F 81% 29.98 in - NW 38.0 mph 47.2 mph N/A   Unknown
4:56 PM 21.0 °F 0.9 °F 17.1 °F 85% 30.03 in - NW 38.0 mph 47.2 mph N/A   Unknown
5:56 PM 19.0 °F -1.3 °F 15.1 °F 85% 30.09 in - NW 35.7 mph 50.6 mph N/A   Unknown
6:56 PM 17.1 °F -5.0 °F 12.0 °F 81% 30.12 in - NW 40.3 mph 50.6 mph N/A   Unknown
7:56 PM 17.1 °F -5.0 °F 10.9 °F 77% 30.16 in - NW 40.3 mph 54.1 mph N/A   Unknown
8:56 PM 17.1 °F -4.3 °F 10.9 °F 77% 30.20 in - NW 36.8 mph 48.3 mph N/A   Unknown
9:56 PM 15.1 °F -6.8 °F 9.0 °F 77% 30.22 in - NW 35.7 mph 48.3 mph N/A   Unknown
10:56 PM 14.0 °F -7.1 °F 8.1 °F 77% 30.27 in - NW 31.1 mph 41.4 mph N/A   Unknown
11:56 PM 12.9 °F -7.6 °F 8.1 °F 81% 30.30 in - NW 27.6 mph 36.8 mph N/A   Unknown